| time (UTC) | temp F | wind direction | speed MPH | gust MPH | rain 1hr in | rain 24hr in | rain mn in | humidity % | barometer mb |
| 20260503184555 | 59 | 157 | 3.0 | 13.0 | 0.00 | 0.00 | 0.00 | 36 | 1009.4 |
| 20260503183101 | 57 | 113 | 8.0 | 19.0 | 0.00 | 0.00 | 0.00 | 39 | 1009.6 |
| 20260503181553 | 57 | 108 | 6.0 | 17.0 | 0.00 | 0.00 | 0.00 | 36 | 1009.8 |
| 20260503180105 | 57 | 109 | 7.0 | 17.0 | 0.00 | 0.00 | 0.00 | 37 | 1010.1 |
| 20260503174551 | 58 | 256 | 2.0 | 13.0 | 0.00 | 0.00 | 0.00 | 37 | 1010.3 |
| 20260503173147 | 57 | 266 | 2.0 | 13.0 | 0.00 | 0.00 | 0.00 | 37 | 1010.7 |
| 20260503171553 | 56 | 84 | 5.0 | 18.0 | 0.00 | 0.00 | 0.00 | 37 | 1011.1 |
| 20260503130104 | 44 | 107 | 3.0 | 8.0 | 0.00 | 0.00 | 0.00 | 62 | 1012.5 |
| 20260503100113 | 40 | 98 | 1.0 | 5.0 | 0.00 | 0.00 | 0.00 | 69 | 1011.4 |
| 20260503090104 | 40 | 117 | 1.0 | 3.0 | 0.00 | 0.00 | 0.00 | 69 | 1011.7 |
| 20260503081558 | 41 | 0 | 0.0 | 4.0 | 0.00 | 0.00 | 0.00 | 68 | 1011.4 |
| 20260503071551 | 42 | 0 | 0.0 | 1.0 | 0.00 | 0.00 | 0.00 | 70 | 1011.3 |
| 20260503054550 | 43 | 0 | 0.0 | 0.0 | 0.00 | 0.00 | 0.00 | 67 | 1011.7 |
| 20260503053052 | 44 | 0 | 0.0 | 0.0 | 0.00 | 0.00 | 0.00 | 71 | 1011.8 |
| 20260503051551 | 44 | 0 | 0.0 | 0.0 | 0.00 | 0.00 | 0.00 | 71 | 1011.8 |
| 20260503050051 | 44 | 0 | 0.0 | 1.0 | 0.00 | 0.00 | 0.00 | 70 | 1011.7 |
| 20260503044553 | 44 | 0 | 0.0 | 0.0 | 0.00 | 0.00 | 0.00 | 67 | 1011.7 |
| 20260503043049 | 45 | 0 | 0.0 | 1.0 | 0.00 | 0.00 | 0.00 | 66 | 1011.7 |
| 20260503041549 | 45 | 0 | 0.0 | 1.0 | 0.00 | 0.00 | 0.00 | 64 | 1011.6 |
| 20260503040052 | 45 | 0 | 0.0 | 1.0 | 0.00 | 0.00 | 0.00 | 63 | 1011.7 |
| 20260503034552 | 46 | 0 | 0.0 | 1.0 | 0.00 | 0.00 | 0.00 | 58 | 1011.7 |
| 20260503033051 | 46 | 0 | 0.0 | 0.0 | 0.00 | 0.00 | 0.00 | 54 | 1011.7 |
| 20260503031607 | 47 | 0 | 0.0 | 1.0 | 0.00 | 0.00 | 0.00 | 52 | 1011.8 |
| 20260503030054 | 47 | 0 | 0.0 | 1.0 | 0.00 | 0.00 | 0.00 | 52 | 1011.8 |
| 20260503024550 | 47 | 0 | 0.0 | 1.0 | 0.00 | 0.00 | 0.00 | 52 | 1011.7 |
| 20260503023055 | 47 | 0 | 0.0 | 1.0 | 0.00 | 0.00 | 0.00 | 51 | 1011.6 |
| 20260503021555 | 47 | 0 | 0.0 | 1.0 | 0.00 | 0.00 | 0.00 | 51 | 1011.5 |
| 20260503020059 | 48 | 262 | 1.0 | 5.0 | 0.00 | 0.00 | 0.00 | 51 | 1011.5 |
| 20260503014555 | 48 | 262 | 0.0 | 5.0 | 0.00 | 0.00 | 0.00 | 50 | 1011.4 |
| 20260503013056 | 48 | 256 | 0.0 | 7.0 | 0.00 | 0.00 | 0.00 | 49 | 1011.3 |
| 20260503011605 | 48 | 272 | 2.0 | 6.0 | 0.00 | 0.00 | 0.00 | 47 | 1011.0 |
| 20260503010052 | 49 | 167 | 2.0 | 8.0 | 0.00 | 0.00 | 0.00 | 47 | 1010.8 |
| 20260503004614 | 50 | 338 | 3.0 | 7.0 | 0.00 | 0.00 | 0.00 | 46 | 1010.8 |
| 20260503003053 | 50 | 76 | 3.0 | 8.0 | 0.00 | 0.00 | 0.00 | 44 | 1010.5 |
| 20260503001554 | 51 | 273 | 1.0 | 8.0 | 0.00 | 0.00 | 0.00 | 42 | 1010.3 |
| 20260503000108 | 52 | 319 | 2.0 | 9.0 | 0.00 | 0.00 | 0.00 | 41 | 1010.1 |
| 20260502234553 | 51 | 281 | 1.0 | 12.0 | 0.00 | 0.00 | 0.00 | 41 | 1010.2 |
| 20260502233056 | 52 | 0 | 0.0 | 8.0 | 0.00 | 0.00 | 0.00 | 40 | 1010.0 |
| 20260502231618 | 53 | 121 | 3.0 | 8.0 | 0.00 | 0.00 | 0.00 | 39 | 1010.0 |
| 20260502230054 | 52 | 87 | 7.0 | 15.0 | 0.00 | 0.00 | 0.00 | 38 | 1009.9 |
| 20260502224557 | 52 | 98 | 2.0 | 9.0 | 0.00 | 0.00 | 0.00 | 39 | 1009.8 |
| 20260502223053 | 52 | 318 | 2.0 | 12.0 | 0.00 | 0.00 | 0.00 | 39 | 1009.8 |
| 20260502221554 | 52 | 311 | 8.0 | 16.0 | 0.00 | 0.00 | 0.00 | 39 | 1009.8 |
| 20260502220053 | 52 | 160 | 5.0 | 17.0 | 0.00 | 0.00 | 0.00 | 38 | 1009.6 |
| 20260502214552 | 53 | 131 | 2.0 | 13.0 | 0.00 | 0.00 | 0.00 | 37 | 1009.5 |
| 20260502213051 | 55 | 360 | 3.0 | 15.0 | 0.00 | 0.00 | 0.00 | 36 | 1009.4 |
| 20260502211551 | 54 | 133 | 3.0 | 11.0 | 0.00 | 0.00 | 0.00 | 36 | 1009.4 |
| 20260502210048 | 53 | 0 | 2.0 | 10.0 | 0.00 | 0.00 | 0.00 | 37 | 1009.3 |
| 20260502204552 | 53 | 20 | 3.0 | 22.0 | 0.00 | 0.00 | 0.00 | 37 | 1009.3 |
| 20260502203049 | 52 | 307 | 5.0 | 20.0 | 0.00 | 0.00 | 0.00 | 37 | 1009.4 |
| 20260502201556 | 54 | 0 | 3.0 | 12.0 | 0.00 | 0.00 | 0.00 | 37 | 1009.3 |
| 20260502200052 | 53 | 125 | 3.0 | 10.0 | 0.00 | 0.00 | 0.00 | 37 | 1009.6 |
| 20260502194612 | 53 | 108 | 4.0 | 17.0 | 0.00 | 0.00 | 0.00 | 36 | 1009.7 |
| 20260502193113 | 52 | 127 | 5.0 | 15.0 | 0.00 | 0.00 | 0.00 | 39 | 1009.7 |
| 20260502191601 | 51 | 179 | 12.0 | 21.0 | 0.00 | 0.00 | 0.00 | 40 | 1009.8 |
| 20260502190054 | 51 | 139 | 9.0 | 14.0 | 0.00 | 0.00 | 0.00 | 41 | 1009.9 |